Flag for Netherlands Weather past 2 weeks in Rotterdam, Netherlands

52 °F

Light rain. Partly sunny.

Feels Like: 46 °F
Forecast: 46 / 54 °F
Wind: 21 mph from Southwest

Location: Rotterdam Zestienhoven Airport

Current Time: Nov 30, 2015 at 1:19:58 PM

Latest Report: Nov 30, 2015 at 12:55 PM

Visibility: 5 mi

Pressure: 29.89 "Hg

Humidity: 94%

Dew point: 50 °F

Location of RotterdamLocation

Historic Weather in Rotterdam — Graph


Rotterdam temperature yesterday

Maximum temperature yesterday: 54 °F (at 1:55 PM)
Minimum temperature yesterday: 46 °F (at 12:25 AM)
Average temperature yesterday: 51 °F

Past Weeks' High & Low Weather Summary

High59 °F (Nov 15, 12:25 PM)100% (Nov 17, 12:55 AM)30.24 "Hg (Nov 17, 12:55 AM)
Low28 °F (Nov 23, 2:25 AM)57% (Nov 30, 8:25 AM)29.27 "Hg (Nov 21, 9:25 AM)
Average47 °F85%29.81 "Hg
* Reported Nov 15 11:25 AM — Nov 30 11:55 AM, Rotterdam, Weather by CustomWeather, © 2015

Note: Actual official high and low records may vary slightly from our data, if they occured in-between our weather recording intervals... More about our weather records


Rotterdam weather history for previous 24 hours

Time TempWeatherWind HumidityBarometerVisibility
11:55 AM
Mon, Nov 30
45 °FRain showers. Mostly cloudy.5 mph100%29.98 "Hg2 mi
11:25 AM45 °FLight rain. Mostly cloudy.10 mph93%29.98 "Hg6 mi
10:55 AM45 °FSprinkles. Cloudy.10 mph87%30.01 "HgN/A
10:25 AM46 °FLight rain. Scattered clouds.8 mph82%30.01 "HgN/A
9:55 AM46 °FLight rain. Mostly cloudy.9 mph76%30.04 "HgN/A
9:25 AM46 °FDrizzle. Partly sunny.12 mph66%30.04 "HgN/A
8:55 AM45 °FBroken clouds.8 mph66%30.04 "HgN/A
8:25 AM46 °FClear.12 mph57%30.04 "HgN/A
7:55 AM46 °FClear.14 mph62%30.04 "HgN/A
7:25 AM46 °FClear.12 mph66%30.04 "HgN/A
6:55 AM46 °FPassing clouds.14 mph62%30.04 "HgN/A
6:25 AM46 °FClear.18 mph62%30.04 "HgN/A
5:55 AM46 °FPassing clouds.16 mph62%30.04 "HgN/A
5:25 AM46 °FPassing clouds.18 mph62%30.01 "HgN/A
4:25 AM46 °FPassing clouds.20 mph66%30.01 "HgN/A
3:55 AM48 °FPassing clouds.22 mph66%29.98 "HgN/A
3:25 AM48 °FPassing clouds.23 mph66%29.95 "HgN/A
2:55 AM48 °FClear.26 mph62%29.95 "HgN/A
1:55 AM50 °FPassing clouds.21 mph62%29.92 "HgN/A
1:25 AM48 °FPassing clouds.23 mph71%29.89 "HgN/A
12:55 AM50 °FPassing clouds.21 mph71%29.89 "HgN/A
12:25 AM48 °FLight rain. Partly cloudy.20 mph82%29.86 "HgN/A
11:55 PM
Sun, Nov 29
52 °FPassing clouds.21 mph67%29.83 "HgN/A
11:25 PM52 °FPassing clouds.21 mph72%29.83 "HgN/A
10:55 PM50 °FPassing clouds.17 mph82%29.80 "HgN/A
10:25 PM52 °FPartly cloudy.28 mph72%29.80 "HgN/A
9:55 PM52 °FPartly cloudy.23 mph82%29.77 "HgN/A
9:25 PM52 °FPassing clouds.16 mph88%29.74 "HgN/A
8:55 PM50 °FMostly cloudy.21 mph94%29.74 "HgN/A
8:25 PM50 °FLots of rain. Mostly cloudy.24 mph94%29.71 "Hg2 mi
7:55 PM52 °FLight rain. Overcast.31 mph82%29.68 "Hg4 mi
7:25 PM54 °FPartly cloudy.35 mph88%29.65 "Hg2 mi
6:55 PM54 °FMostly cloudy.31 mph82%29.65 "Hg4 mi
6:25 PM54 °FPartly cloudy.35 mph82%29.65 "Hg4 mi
5:55 PM54 °FPartly cloudy.32 mph82%29.65 "Hg4 mi
5:25 PM54 °FPassing clouds.33 mph82%29.65 "Hg4 mi
4:55 PM54 °FMostly cloudy.29 mph82%29.65 "Hg4 mi
4:25 PM54 °FPassing clouds.30 mph82%29.65 "Hg4 mi
3:55 PM54 °FMostly cloudy.37 mph82%29.68 "Hg5 mi
3:25 PM54 °FBroken clouds.31 mph82%29.68 "Hg5 mi
2:55 PM54 °FMostly cloudy.29 mph77%29.68 "Hg5 mi
2:25 PM54 °FClear.26 mph77%29.68 "Hg6 mi
1:55 PM54 °FBroken clouds.28 mph82%29.68 "Hg6 mi
1:25 PM52 °FBroken clouds.22 mph88%29.68 "Hg6 mi
Weather by CustomWeather, © 2015

See weather overviewHow to use our weather pages